When you browse on this site, cookies collect data to enhance your experience and personalize the content and advertising you see.
Visit our Privacy Policy to learn more. By continuing to use the site, you agree to this use of cookies and data.
  • în România
  • Lista ţărilor
  • Pe 7 zile
  • Temperatura apei
  • Hartă satelitară
  • Meteo pe hartă
  • Widget-uri
  • user-avatar
    Intrare

    Meteo pe oră la Chaska

    Astăzi, 20 Februarie, Miercuri

    Timp Temperatura Precipitaţii Vânt Presiune Umiditate
    00:00 -13°C° 0 mm 3 m/s 745 mmHg 90%
    01:00 -12°C° 0.1 mm 3 m/s 744 mmHg 92%
    02:00 -12°C° 0.1 mm 4 m/s 743 mmHg 93%
    03:00 -11°C° 0.1 mm 4 m/s 742 mmHg 94%
    04:00 -11°C° 1 mm 4 m/s 741 mmHg 95%
    05:00 -11°C° 1 mm 5 m/s 740 mmHg 95%
    06:00 -10°C° 1 mm 5 m/s 739 mmHg 96%
    07:00 -10°C° 1.5 mm 5 m/s 738 mmHg 95%
    08:00 -10°C° 1.5 mm 5 m/s 737 mmHg 95%
    09:00 -9°C° 1.5 mm 6 m/s 736 mmHg 94%
    10:00 -8°C° 0.6 mm 6 m/s 735 mmHg 94%
    11:00 -6°C° 0.6 mm 6 m/s 734 mmHg 93%
    12:00 -5°C° 0.6 mm 5 m/s 733 mmHg 92%
    13:00 -5°C° 0.5 mm 5 m/s 732 mmHg 92%
    14:00 -4°C° 0.5 mm 4 m/s 731 mmHg 93%
    15:00 -2°C° 0.5 mm 3 m/s 730 mmHg 93%
    16:00 -3°C° 0.3 mm 2 m/s 731 mmHg 94%
    17:00 -3°C° 0.3 mm 2 m/s 731 mmHg 95%
    18:00 -1°C° 0.3 mm 1 m/s 731 mmHg 96%
    19:00 -4°C° 0 mm 2 m/s 732 mmHg 95%
    20:00 -5°C° 0 mm 2 m/s 732 mmHg 95%
    21:00 -6°C° 0 mm 3 m/s 733 mmHg 95%
    22:00 -8°C° 0 mm 4 m/s 734 mmHg 94%
    23:00 -8°C° 0 mm 4 m/s 735 mmHg 93%

    Mâine, 21 Februarie, Joi

    Timp Temperatura Precipitaţii Vânt Presiune Umiditate
    00:00 -10°C° 0 mm 5 m/s 736 mmHg 92%
    01:00 -11°C° 0 mm 5 m/s 736 mmHg 93%
    02:00 -11°C° 0 mm 4 m/s 737 mmHg 93%
    03:00 -12°C° 0 mm 4 m/s 738 mmHg 94%
    04:00 -15°C° 0 mm 4 m/s 739 mmHg 94%
    05:00 -16°C° 0 mm 4 m/s 740 mmHg 93%
    06:00 -16°C° 0 mm 3 m/s 740 mmHg 93%
    07:00 -16°C° 0 mm 3 m/s 741 mmHg 93%
    08:00 -16°C° 0 mm 4 m/s 742 mmHg 92%
    09:00 -16°C° 0 mm 4 m/s 743 mmHg 92%
    10:00 -15°C° 0 mm 4 m/s 744 mmHg 91%
    11:00 -13°C° 0 mm 3 m/s 744 mmHg 91%
    12:00 -10°C° 0 mm 3 m/s 745 mmHg 91%
    13:00 -10°C° 0 mm 3 m/s 745 mmHg 90%
    14:00 -9°C° 0 mm 3 m/s 745 mmHg 90%
    15:00 -8°C° 0 mm 3 m/s 745 mmHg 89%
    16:00 -10°C° 0 mm 3 m/s 745 mmHg 90%
    17:00 -10°C° 0 mm 2 m/s 746 mmHg 92%
    18:00 -11°C° 0 mm 1 m/s 746 mmHg 93%
    19:00 -11°C° 0 mm 1 m/s 746 mmHg 93%
    20:00 -11°C° 0 mm 1 m/s 747 mmHg 93%
    21:00 -11°C° 0 mm 1 m/s 747 mmHg 93%
    22:00 -11°C° 0 mm 1 m/s 748 mmHg 93%
    23:00 -10°C° 0 mm 1 m/s 748 mmHg 93%

    Poimâine, 22 Februarie, Vineri

    Timp Temperatura Precipitaţii Vânt Presiune Umiditate
    00:00 -9°C° 0 mm 1 m/s 748 mmHg 94%
    01:00 -9°C° 0.2 mm 1 m/s 748 mmHg 95%
    02:00 -8°C° 0.2 mm 0 m/s 749 mmHg 96%
    03:00 -8°C° 0.2 mm 0 m/s 749 mmHg 97%
    04:00 -8°C° 0 mm 1 m/s 748 mmHg 96%
    05:00 -8°C° 0 mm 1 m/s 748 mmHg 96%
    06:00 -9°C° 0 mm 2 m/s 748 mmHg 96%
    07:00 -9°C° 0 mm 2 m/s 748 mmHg 95%
    08:00 -8°C° 0 mm 2 m/s 748 mmHg 94%
    09:00 -9°C° 0 mm 3 m/s 748 mmHg 93%
    10:00 -8°C° 0 mm 3 m/s 748 mmHg 91%
    11:00 -6°C° 0 mm 3 m/s 747 mmHg 88%
    12:00 -5°C° 0 mm 4 m/s 747 mmHg 86%
    13:00 -5°C° 0 mm 3 m/s 746 mmHg 86%
    14:00 -4°C° 0 mm 3 m/s 745 mmHg 87%
    15:00 -4°C° 0 mm 3 m/s 744 mmHg 87%
    16:00 -4°C° 0.1 mm 3 m/s 744 mmHg 88%
    17:00 -4°C° 0.1 mm 3 m/s 744 mmHg 89%
    18:00 -4°C° 0.1 mm 3 m/s 743 mmHg 90%
    19:00 -4°C° 1 mm 3 m/s 743 mmHg 92%
    20:00 -4°C° 1 mm 3 m/s 743 mmHg 94%
    21:00 -4°C° 1 mm 3 m/s 742 mmHg 96%
    22:00 -4°C° 0.3 mm 3 m/s 742 mmHg 96%
    23:00 -4°C° 0.3 mm 3 m/s 741 mmHg 96%

    23 Februarie, Sâmbătă

    Timp Temperatura Precipitaţii Vânt Presiune Umiditate
    00:00 -3°C° 0.3 mm 2 m/s 741 mmHg 96%
    01:00 -3°C° 0.1 mm 2 m/s 740 mmHg 96%
    02:00 -3°C° 0.1 mm 2 m/s 740 mmHg 97%
    03:00 -3°C° 0.1 mm 2 m/s 739 mmHg 97%
    04:00 -3°C° 0 mm 2 m/s 739 mmHg 97%
    05:00 -3°C° 0 mm 2 m/s 738 mmHg 97%
    06:00 -4°C° 0 mm 2 m/s 738 mmHg 97%
    07:00 -3°C° 0.1 mm 2 m/s 738 mmHg 97%
    08:00 -3°C° 0.1 mm 2 m/s 738 mmHg 97%
    09:00 -2°C° 0.1 mm 2 m/s 737 mmHg 97%
    10:00 -2°C° 0.3 mm 3 m/s 737 mmHg 98%
    11:00 -1°C° 0.3 mm 3 m/s 736 mmHg 98%
    12:00 -1°C° 0.3 mm 3 m/s 735 mmHg 98%
    13:00 -2°C° 0.7 mm 4 m/s 734 mmHg 97%
    14:00 -2°C° 0.7 mm 4 m/s 733 mmHg 97%
    15:00 -2°C° 0.7 mm 5 m/s 732 mmHg 96%
    16:00 -2°C° 0.6 mm 5 m/s 732 mmHg 95%
    17:00 -3°C° 0.6 mm 6 m/s 731 mmHg 95%
    18:00 -3°C° 0.6 mm 6 m/s 731 mmHg 94%
    19:00 -3°C° 1.3 mm 7 m/s 730 mmHg 94%
    20:00 -4°C° 1.3 mm 8 m/s 729 mmHg 94%
    21:00 -5°C° 1.3 mm 8 m/s 729 mmHg 94%
    22:00 -5°C° 1 mm 8 m/s 729 mmHg 93%
    23:00 -5°C° 1 mm 8 m/s 729 mmHg 93%

    24 Februarie, Duminică

    Timp Temperatura Precipitaţii Vânt Presiune Umiditate
    00:00 -5°C° 1 mm 8 m/s 730 mmHg 92%
    01:00 -5°C° 0.4 mm 8 m/s 730 mmHg 91%
    02:00 -5°C° 0.4 mm 8 m/s 731 mmHg 90%
    03:00 -5°C° 0.4 mm 8 m/s 731 mmHg 89%
    04:00 -6°C° 0.2 mm 8 m/s 732 mmHg 89%
    05:00 -7°C° 0.2 mm 8 m/s 733 mmHg 88%
    06:00 -7°C° 0.2 mm 8 m/s 734 mmHg 87%
    07:00 -8°C° 0.1 mm 8 m/s 735 mmHg 87%
    08:00 -10°C° 0.1 mm 8 m/s 736 mmHg 87%
    09:00 -11°C° 0.1 mm 8 m/s 737 mmHg 87%
    10:00 -11°C° 0 mm 8 m/s 738 mmHg 87%
    11:00 -11°C° 0 mm 8 m/s 739 mmHg 88%
    12:00 -11°C° 0 mm 8 m/s 740 mmHg 88%
    13:00 -11°C° 0 mm 8 m/s 740 mmHg 87%
    14:00 -12°C° 0 mm 8 m/s 741 mmHg 87%
    15:00 -12°C° 0 mm 8 m/s 742 mmHg 86%
    16:00 -13°C° 0 mm 7 m/s 743 mmHg 86%
    17:00 -14°C° 0 mm 7 m/s 744 mmHg 86%
    18:00 -15°C° 0 mm 6 m/s 745 mmHg 86%
    19:00 -16°C° 0 mm 6 m/s 746 mmHg 86%
    20:00 -17°C° 0 mm 5 m/s 747 mmHg 86%
    21:00 -19°C° 0 mm 5 m/s 748 mmHg 87%
    22:00 -20°C° 0 mm 5 m/s 749 mmHg 88%
    23:00 -22°C° 0 mm 4 m/s 749 mmHg 89%

    25 Februarie, Luni

    Timp Temperatura Precipitaţii Vânt Presiune Umiditate
    00:00 -23°C° 0 mm 4 m/s 750 mmHg 90%
    01:00 -25°C° 0 mm 4 m/s 750 mmHg 91%
    02:00 -25°C° 0 mm 3 m/s 751 mmHg 92%
    03:00 -26°C° 0 mm 3 m/s 752 mmHg 93%
    04:00 -27°C° 0 mm 3 m/s 752 mmHg 93%
    05:00 -27°C° 0 mm 2 m/s 753 mmHg 93%
    06:00 -28°C° 0 mm 2 m/s 753 mmHg 93%
    07:00 -28°C° 0 mm 2 m/s 754 mmHg 92%
    08:00 -27°C° 0 mm 2 m/s 754 mmHg 92%
    09:00 -23°C° 0 mm 1 m/s 755 mmHg 91%
    10:00 -21°C° 0 mm 1 m/s 755 mmHg 88%
    11:00 -19°C° 0 mm 0 m/s 754 mmHg 86%
    12:00 -17°C° 0 mm 0 m/s 754 mmHg 84%
    13:00 -16°C° 0 mm 0 m/s 754 mmHg 81%
    14:00 -15°C° 0 mm 1 m/s 753 mmHg 79%
    15:00 -14°C° 0 mm 1 m/s 752 mmHg 76%
    16:00 -14°C° 0 mm 1 m/s 752 mmHg 81%
    17:00 -17°C° 0 mm 2 m/s 751 mmHg 85%
    18:00 -17°C° 0 mm 2 m/s 750 mmHg 90%
    19:00 -16°C° 0.2 mm 2 m/s 750 mmHg 92%
    20:00 -17°C° 0.2 mm 3 m/s 750 mmHg 93%
    21:00 -17°C° 0.2 mm 3 m/s 749 mmHg 95%
    22:00 -16°C° 0.7 mm 3 m/s 749 mmHg 96%
    23:00 -15°C° 0.7 mm 3 m/s 748 mmHg 96%
    Arată mai mult